| time (UTC) | temp F | wind direction | speed MPH | gust MPH | rain 1hr in | rain 24hr in | rain mn in | humidity % | barometer mb |
| 20260507060551 | 52 | 0 | 0.0 | 1.0 | 0.00 | 1.74 | 0.00 | 97 | 1016.5 |
| 20260507060058 | 52 | 0 | 0.0 | 1.0 | 0.00 | 1.74 | 0.00 | 97 | 1016.5 |
| 20260507055550 | 53 | 0 | 0.0 | 1.0 | 0.00 | 1.74 | 0.00 | 97 | 1016.5 |
| 20260507055049 | 53 | 0 | 0.0 | 1.0 | 0.00 | 1.74 | 0.00 | 97 | 1016.5 |
| 20260507054606 | 53 | 131 | 0.0 | 1.0 | 0.00 | 1.74 | 0.00 | 97 | 1016.3 |
| 20260507054052 | 53 | 0 | 0.0 | 1.0 | 0.00 | 1.74 | 0.00 | 97 | 1016.5 |
| 20260507053552 | 53 | 195 | 0.0 | 2.0 | 0.00 | 1.74 | 0.00 | 97 | 1016.3 |
| 20260507053055 | 53 | 0 | 0.0 | 2.0 | 0.00 | 1.74 | 0.00 | 97 | 1016.3 |
| 20260507052552 | 53 | 146 | 0.0 | 2.0 | 0.00 | 1.74 | 0.00 | 97 | 1016.3 |
| 20260507052052 | 53 | 140 | 0.0 | 2.0 | 0.00 | 1.74 | 0.00 | 97 | 1016.4 |
| 20260507051555 | 53 | 0 | 0.0 | 2.0 | 0.00 | 1.74 | 0.00 | 97 | 1016.2 |
| 20260507051052 | 53 | 117 | 0.0 | 1.0 | 0.00 | 1.74 | 0.00 | 97 | 1016.0 |
| 20260507050549 | 52 | 132 | 0.0 | 1.0 | 0.00 | 1.74 | 0.00 | 97 | 1015.9 |
| 20260507050056 | 52 | 131 | 0.0 | 1.0 | 0.00 | 1.74 | 0.00 | 97 | 1016.0 |
| 20260507045552 | 52 | 131 | 0.0 | 2.0 | 0.00 | 1.74 | 1.74 | 97 | 1016.1 |
| 20260507045050 | 52 | 155 | 0.0 | 2.0 | 0.00 | 1.74 | 1.74 | 97 | 1016.0 |
| 20260507044554 | 52 | 0 | 0.0 | 2.0 | 0.00 | 1.74 | 1.74 | 97 | 1016.1 |
| 20260507044049 | 52 | 136 | 0.0 | 1.0 | 0.00 | 1.74 | 1.74 | 97 | 1016.0 |
| 20260507043549 | 52 | 0 | 0.0 | 1.0 | 0.00 | 1.74 | 1.74 | 97 | 1016.3 |
| 20260507043059 | 53 | 136 | 0.0 | 1.0 | 0.00 | 1.74 | 1.74 | 97 | 1016.3 |
| 20260507042553 | 52 | 136 | 0.0 | 1.0 | 0.00 | 1.74 | 1.74 | 97 | 1016.5 |
| 20260507042051 | 53 | 0 | 0.0 | 1.0 | 0.00 | 1.74 | 1.74 | 97 | 1016.3 |
| 20260507041600 | 53 | 0 | 0.0 | 1.0 | 0.00 | 1.74 | 1.74 | 97 | 1016.1 |
| 20260507041054 | 53 | 0 | 0.0 | 1.0 | 0.00 | 1.74 | 1.74 | 97 | 1016.3 |
| 20260507040555 | 53 | 0 | 0.0 | 1.0 | 0.00 | 1.74 | 1.74 | 97 | 1016.2 |
| 20260507040058 | 53 | 0 | 0.0 | 2.0 | 0.00 | 1.74 | 1.74 | 97 | 1016.4 |
| 20260507035552 | 53 | 171 | 0.0 | 2.0 | 0.00 | 1.74 | 1.74 | 96 | 1016.4 |
| 20260507035052 | 53 | 160 | 0.0 | 0.0 | 0.00 | 1.74 | 1.74 | 96 | 1016.6 |
| 20260507034557 | 53 | 0 | 0.0 | 0.0 | 0.00 | 1.74 | 1.74 | 96 | 1016.8 |
| 20260507034048 | 53 | 0 | 0.0 | 0.0 | 0.00 | 1.74 | 1.74 | 96 | 1017.0 |
| 20260507033552 | 53 | 0 | 0.0 | 2.0 | 0.00 | 1.74 | 1.74 | 96 | 1016.9 |
| 20260507033054 | 53 | 0 | 0.0 | 2.0 | 0.00 | 1.74 | 1.74 | 96 | 1016.8 |
| 20260507032553 | 53 | 0 | 0.0 | 2.0 | 0.00 | 1.74 | 1.74 | 96 | 1016.9 |
| 20260507032053 | 53 | 0 | 0.0 | 2.0 | 0.00 | 1.74 | 1.74 | 96 | 1016.8 |
| 20260507031551 | 53 | 143 | 0.0 | 2.0 | 0.00 | 1.74 | 1.74 | 96 | 1016.4 |
| 20260507031052 | 53 | 114 | 0.0 | 2.0 | 0.00 | 1.74 | 1.74 | 96 | 1016.7 |
| 20260507030552 | 53 | 0 | 0.0 | 2.0 | 0.00 | 1.74 | 1.74 | 96 | 1016.6 |
| 20260507025551 | 53 | 0 | 0.0 | 0.0 | 0.00 | 1.74 | 1.74 | 96 | 1016.5 |
| 20260507025052 | 53 | 148 | 0.0 | 0.0 | 0.00 | 1.74 | 1.74 | 96 | 1016.3 |
| 20260507024557 | 53 | 0 | 0.0 | 2.0 | 0.00 | 1.74 | 1.74 | 96 | 1016.2 |
| 20260507024053 | 53 | 0 | 0.0 | 2.0 | 0.00 | 1.74 | 1.74 | 96 | 1016.2 |
| 20260507023552 | 53 | 168 | 0.0 | 2.0 | 0.00 | 1.74 | 1.74 | 96 | 1016.1 |
| 20260507023110 | 53 | 188 | 0.0 | 5.0 | 0.00 | 1.74 | 1.74 | 96 | 1016.0 |
| 20260507022552 | 53 | 0 | 1.0 | 5.0 | 0.00 | 1.74 | 1.74 | 96 | 1015.8 |
| 20260507022052 | 53 | 146 | 0.0 | 2.0 | 0.00 | 1.74 | 1.74 | 97 | 1015.8 |
| 20260507021558 | 53 | 0 | 0.0 | 2.0 | 0.00 | 1.74 | 1.74 | 97 | 1015.9 |
| 20260507021053 | 53 | 129 | 0.0 | 3.0 | 0.00 | 1.74 | 1.74 | 97 | 1015.8 |
| 20260507020549 | 53 | 155 | 0.0 | 3.0 | 0.00 | 1.74 | 1.74 | 97 | 1015.9 |
| 20260507020056 | 53 | 155 | 0.0 | 3.0 | 0.00 | 1.74 | 1.74 | 97 | 1016.0 |
| 20260507015551 | 53 | 0 | 0.0 | 2.0 | 0.00 | 1.74 | 1.74 | 97 | 1015.8 |
| 20260507015051 | 53 | 0 | 0.0 | 2.0 | 0.00 | 1.74 | 1.74 | 97 | 1015.7 |
| 20260507014605 | 53 | 115 | 0.0 | 2.0 | 0.00 | 1.74 | 1.74 | 97 | 1015.7 |
| 20260507014052 | 53 | 122 | 0.0 | 2.0 | 0.00 | 1.74 | 1.74 | 96 | 1015.6 |
| 20260507013551 | 53 | 0 | 0.0 | 4.0 | 0.00 | 1.74 | 1.74 | 96 | 1015.8 |
| 20260507013114 | 53 | 0 | 0.0 | 4.0 | 0.00 | 1.74 | 1.74 | 96 | 1015.2 |
| 20260507012552 | 53 | 139 | 0.0 | 4.0 | 0.00 | 1.74 | 1.74 | 96 | 1015.2 |
| 20260507012049 | 53 | 139 | 0.0 | 4.0 | 0.00 | 1.74 | 1.74 | 96 | 1015.5 |
| 20260507011552 | 53 | 150 | 1.0 | 4.0 | 0.00 | 1.74 | 1.74 | 96 | 1015.1 |
| 20260507011051 | 53 | 103 | 0.0 | 3.0 | 0.00 | 1.74 | 1.74 | 96 | 1015.1 |
| 20260507010552 | 53 | 122 | 0.0 | 3.0 | 0.00 | 1.74 | 1.74 | 96 | 1015.4 |
| 20260507010056 | 53 | 155 | 1.0 | 3.0 | 0.00 | 1.74 | 1.74 | 96 | 1015.1 |
| 20260507005552 | 53 | 106 | 1.0 | 3.0 | 0.01 | 1.74 | 1.74 | 96 | 1015.2 |
| 20260507005051 | 53 | 174 | 0.0 | 2.0 | 0.01 | 1.74 | 1.74 | 96 | 1015.3 |
| 20260507004553 | 53 | 150 | 0.0 | 3.0 | 0.01 | 1.74 | 1.74 | 96 | 1015.7 |
| 20260507004051 | 53 | 162 | 0.0 | 4.0 | 0.01 | 1.74 | 1.74 | 96 | 1015.8 |
| 20260507003549 | 53 | 89 | 0.0 | 4.0 | 0.01 | 1.74 | 1.74 | 96 | 1015.7 |
| 20260507003056 | 54 | 116 | 1.0 | 2.0 | 0.01 | 1.74 | 1.74 | 96 | 1015.7 |
| 20260507002551 | 54 | 143 | 0.0 | 3.0 | 0.01 | 1.74 | 1.74 | 96 | 1015.6 |
| 20260507002050 | 54 | 195 | 1.0 | 3.0 | 0.01 | 1.74 | 1.74 | 96 | 1015.8 |
| 20260507001609 | 54 | 158 | 0.0 | 2.0 | 0.01 | 1.74 | 1.74 | 96 | 1015.4 |
| 20260507001054 | 54 | 138 | 0.0 | 2.0 | 0.01 | 1.74 | 1.74 | 96 | 1015.6 |
| 20260507000549 | 54 | 0 | 0.0 | 3.0 | 0.01 | 1.74 | 1.74 | 96 | 1015.7 |
| 20260507000052 | 54 | 134 | 0.0 | 3.0 | 0.01 | 1.74 | 1.74 | 96 | 1015.5 |
| 20260506235550 | 54 | 166 | 0.0 | 2.0 | 0.00 | 1.73 | 1.73 | 95 | 1015.1 |
| 20260506235046 | 54 | 150 | 0.0 | 2.0 | 0.00 | 1.73 | 1.73 | 95 | 1015.4 |
| 20260506234552 | 54 | 143 | 0.0 | 2.0 | 0.00 | 1.73 | 1.73 | 95 | 1015.9 |
| 20260506234050 | 54 | 105 | 0.0 | 2.0 | 0.00 | 1.73 | 1.73 | 95 | 1015.7 |
| 20260506233549 | 54 | 140 | 0.0 | 3.0 | 0.00 | 1.73 | 1.73 | 95 | 1015.9 |
| 20260506233051 | 54 | 0 | 0.0 | 3.0 | 0.00 | 1.73 | 1.73 | 95 | 1016.1 |
| 20260506232549 | 54 | 138 | 1.0 | 3.0 | 0.00 | 1.73 | 1.73 | 95 | 1015.8 |
| 20260506232050 | 54 | 0 | 0.0 | 3.0 | 0.00 | 1.73 | 1.73 | 95 | 1015.4 |
| 20260506231551 | 54 | 0 | 1.0 | 3.0 | 0.00 | 1.73 | 1.73 | 95 | 1015.3 |
| 20260506231050 | 54 | 154 | 0.0 | 4.0 | 0.00 | 1.73 | 1.73 | 95 | 1015.5 |
| 20260506230549 | 54 | 142 | 0.0 | 4.0 | 0.00 | 1.73 | 1.73 | 95 | 1015.5 |
| 20260506230055 | 54 | 103 | 1.0 | 4.0 | 0.00 | 1.73 | 1.73 | 94 | 1015.4 |
| 20260506225547 | 54 | 168 | 1.0 | 3.0 | 0.00 | 1.73 | 1.73 | 95 | 1015.4 |
| 20260506225047 | 54 | 127 | 0.0 | 4.0 | 0.00 | 1.73 | 1.73 | 95 | 1015.0 |
| 20260506224552 | 54 | 153 | 1.0 | 5.0 | 0.00 | 1.73 | 1.73 | 94 | 1014.9 |
| 20260506224050 | 54 | 120 | 0.0 | 5.0 | 0.00 | 1.73 | 1.73 | 94 | 1014.6 |
| 20260506223549 | 54 | 174 | 2.0 | 5.0 | 0.00 | 1.73 | 1.73 | 94 | 1014.6 |
| 20260506223111 | 54 | 177 | 1.0 | 6.0 | 0.00 | 1.73 | 1.73 | 94 | 1014.5 |
| 20260506222548 | 55 | 152 | 2.0 | 6.0 | 0.00 | 1.73 | 1.73 | 94 | 1014.2 |
| 20260506222052 | 55 | 182 | 2.0 | 6.0 | 0.00 | 1.73 | 1.73 | 94 | 1014.2 |
| 20260506221555 | 55 | 212 | 0.0 | 6.0 | 0.00 | 1.73 | 1.73 | 95 | 1014.2 |
| 20260506221050 | 55 | 165 | 1.0 | 6.0 | 0.00 | 1.73 | 1.73 | 95 | 1014.1 |
| 20260506220550 | 55 | 136 | 1.0 | 6.0 | 0.01 | 1.73 | 1.73 | 95 | 1014.1 |
| 20260506220056 | 55 | 138 | 2.0 | 6.0 | 0.01 | 1.73 | 1.73 | 95 | 1014.3 |
| 20260506215549 | 55 | 141 | 1.0 | 5.0 | 0.01 | 1.73 | 1.73 | 95 | 1014.3 |
| 20260506215047 | 55 | 87 | 1.0 | 5.0 | 0.02 | 1.73 | 1.73 | 95 | 1014.3 |
| 20260506214558 | 55 | 147 | 1.0 | 5.0 | 0.02 | 1.73 | 1.73 | 96 | 1014.1 |
| 20260506214052 | 55 | 160 | 1.0 | 5.0 | 0.02 | 1.73 | 1.73 | 95 | 1014.3 |
| 20260506213550 | 55 | 55 | 1.0 | 5.0 | 0.02 | 1.73 | 1.73 | 96 | 1014.4 |
| 20260506213054 | 55 | 172 | 1.0 | 5.0 | 0.02 | 1.73 | 1.73 | 95 | 1014.1 |
| 20260506212549 | 55 | 153 | 1.0 | 4.0 | 0.03 | 1.73 | 1.73 | 95 | 1014.3 |
| 20260506212049 | 55 | 0 | 1.0 | 2.0 | 0.04 | 1.73 | 1.73 | 95 | 1015.0 |
| 20260506211552 | 55 | 134 | 0.0 | 2.0 | 0.04 | 1.73 | 1.73 | 95 | 1015.4 |
| 20260506211050 | 55 | 153 | 0.0 | 2.0 | 0.05 | 1.73 | 1.73 | 95 | 1015.5 |
| 20260506210546 | 55 | 153 | 0.0 | 2.0 | 0.04 | 1.72 | 1.72 | 95 | 1015.8 |
| 20260506210109 | 55 | 126 | 0.0 | 2.0 | 0.05 | 1.72 | 1.72 | 94 | 1015.8 |
| 20260506205550 | 55 | 94 | 1.0 | 3.0 | 0.05 | 1.72 | 1.72 | 94 | 1015.6 |
| 20260506205050 | 55 | 124 | 0.0 | 4.0 | 0.04 | 1.71 | 1.71 | 94 | 1015.4 |
| 20260506204555 | 55 | 133 | 1.0 | 4.0 | 0.04 | 1.71 | 1.71 | 94 | 1015.2 |
| 20260506204052 | 55 | 169 | 1.0 | 5.0 | 0.04 | 1.71 | 1.71 | 94 | 1015.2 |
| 20260506203551 | 55 | 118 | 0.0 | 5.0 | 0.04 | 1.71 | 1.71 | 95 | 1015.3 |
| 20260506203101 | 55 | 193 | 1.0 | 5.0 | 0.04 | 1.71 | 1.71 | 94 | 1015.0 |
| 20260506202552 | 55 | 162 | 0.0 | 3.0 | 0.03 | 1.70 | 1.70 | 95 | 1015.3 |
| 20260506202052 | 54 | 199 | 0.0 | 3.0 | 0.02 | 1.69 | 1.69 | 94 | 1015.4 |
| 20260506201558 | 55 | 209 | 1.0 | 4.0 | 0.02 | 1.69 | 1.69 | 93 | 1015.5 |
| 20260506201053 | 55 | 0 | 1.0 | 4.0 | 0.01 | 1.68 | 1.68 | 93 | 1016.4 |
| 20260506200551 | 55 | 116 | 1.0 | 2.0 | 0.01 | 1.68 | 1.68 | 93 | 1015.8 |
| 20260506200136 | 55 | 156 | 1.0 | 2.0 | 0.00 | 1.67 | 1.67 | 92 | 1016.2 |
| 20260506195552 | 55 | 120 | 0.0 | 3.0 | 0.00 | 1.67 | 1.67 | 92 | 1016.2 |
| 20260506195052 | 55 | 108 | 1.0 | 3.0 | 0.00 | 1.67 | 1.67 | 92 | 1016.2 |
| 20260506194604 | 55 | 148 | 0.0 | 6.0 | 0.00 | 1.67 | 1.67 | 92 | 1016.1 |
| 20260506194051 | 55 | 91 | 0.0 | 6.0 | 0.00 | 1.67 | 1.67 | 92 | 1015.9 |
| 20260506193551 | 55 | 131 | 1.0 | 5.0 | 0.00 | 1.67 | 1.67 | 92 | 1016.0 |
| 20260506193058 | 55 | 108 | 1.0 | 4.0 | 0.00 | 1.67 | 1.67 | 92 | 1016.1 |
| 20260506192551 | 56 | 127 | 1.0 | 3.0 | 0.00 | 1.67 | 1.67 | 92 | 1016.2 |
| 20260506192051 | 56 | 118 | 0.0 | 3.0 | 0.00 | 1.67 | 1.67 | 93 | 1016.2 |
| 20260506191551 | 56 | 179 | 1.0 | 3.0 | 0.00 | 1.67 | 1.67 | 93 | 1016.0 |
| 20260506191052 | 55 | 260 | 0.0 | 1.0 | 0.00 | 1.67 | 1.67 | 92 | 1016.1 |
| 20260506190551 | 55 | 141 | 0.0 | 3.0 | 0.00 | 1.67 | 1.67 | 93 | 1016.3 |
| 20260506190052 | 55 | 111 | 0.0 | 4.0 | 0.00 | 1.67 | 1.67 | 93 | 1016.4 |
| 20260506185553 | 55 | 93 | 0.0 | 4.0 | 0.00 | 1.69 | 1.67 | 93 | 1016.2 |
| 20260506185052 | 55 | 177 | 1.0 | 3.0 | 0.00 | 1.69 | 1.67 | 93 | 1015.9 |
| 20260506184554 | 55 | 141 | 1.0 | 3.0 | 0.00 | 1.69 | 1.67 | 94 | 1015.7 |
| 20260506184053 | 55 | 0 | 0.0 | 3.0 | 0.00 | 1.69 | 1.67 | 93 | 1015.5 |
| 20260506183552 | 55 | 188 | 0.0 | 5.0 | 0.00 | 1.69 | 1.67 | 93 | 1015.7 |
| 20260506183055 | 55 | 129 | 0.0 | 5.0 | 0.00 | 1.69 | 1.67 | 94 | 1015.8 |
| 20260506182551 | 55 | 137 | 1.0 | 3.0 | 0.00 | 1.69 | 1.67 | 94 | 1015.6 |
| 20260506182053 | 55 | 158 | 1.0 | 4.0 | 0.00 | 1.69 | 1.67 | 94 | 1015.6 |
| 20260506181553 | 55 | 162 | 0.0 | 4.0 | 0.00 | 1.69 | 1.67 | 95 | 1015.6 |
| 20260506181053 | 55 | 129 | 1.0 | 5.0 | 0.00 | 1.69 | 1.67 | 95 | 1015.7 |
| 20260506180552 | 55 | 179 | 1.0 | 5.0 | 0.00 | 1.69 | 1.67 | 95 | 1015.7 |
| 20260506180105 | 55 | 108 | 1.0 | 4.0 | 0.00 | 1.69 | 1.67 | 97 | 1015.5 |
| 20260506175553 | 55 | 108 | 1.0 | 4.0 | 0.00 | 1.70 | 1.67 | 97 | 1015.6 |
| 20260506175051 | 54 | 120 | 1.0 | 4.0 | 0.00 | 1.70 | 1.67 | 97 | 1015.5 |
| 20260506174555 | 54 | 118 | 1.0 | 4.0 | 0.00 | 1.70 | 1.67 | 97 | 1015.2 |
| 20260506174049 | 53 | 181 | 1.0 | 3.0 | 0.00 | 1.70 | 1.67 | 97 | 1015.5 |
| 20260506173552 | 53 | 124 | 0.0 | 3.0 | 0.00 | 1.70 | 1.67 | 97 | 1015.7 |
| 20260506173107 | 53 | 139 | 0.0 | 4.0 | 0.04 | 1.70 | 1.67 | 97 | 1015.7 |
| 20260506172553 | 53 | 169 | 1.0 | 5.0 | 0.05 | 1.70 | 1.67 | 97 | 1015.5 |
| 20260506172051 | 53 | 144 | 1.0 | 5.0 | 0.05 | 1.70 | 1.67 | 97 | 1015.8 |
| 20260506171557 | 53 | 100 | 0.0 | 5.0 | 0.07 | 1.70 | 1.67 | 98 | 1016.0 |
| 20260506171049 | 53 | 155 | 2.0 | 5.0 | 0.06 | 1.69 | 1.66 | 98 | 1015.9 |
| 20260506170549 | 52 | 146 | 1.0 | 4.0 | 0.06 | 1.69 | 1.66 | 97 | 1015.8 |
| 20260506170058 | 52 | 149 | 1.0 | 3.0 | 0.06 | 1.69 | 1.66 | 97 | 1015.9 |
| 20260506165549 | 52 | 147 | 1.0 | 3.0 | 0.06 | 1.84 | 1.66 | 98 | 1016.0 |
| 20260506165049 | 52 | 141 | 0.0 | 4.0 | 0.06 | 1.83 | 1.65 | 98 | 1016.0 |
| 20260506164553 | 52 | 110 | 0.0 | 4.0 | 0.05 | 1.82 | 1.64 | 98 | 1015.8 |
| 20260506164051 | 52 | 122 | 1.0 | 4.0 | 0.05 | 1.81 | 1.63 | 97 | 1016.3 |
| 20260506163549 | 52 | 116 | 1.0 | 4.0 | 0.05 | 1.81 | 1.63 | 98 | 1015.7 |
| 20260506163053 | 51 | 115 | 0.0 | 3.0 | 0.06 | 1.81 | 1.63 | 98 | 1015.5 |
| 20260506162553 | 51 | 149 | 1.0 | 4.0 | 0.05 | 1.80 | 1.62 | 98 | 1015.6 |
| 20260506162051 | 51 | 109 | 1.0 | 4.0 | 0.06 | 1.80 | 1.62 | 98 | 1015.5 |
| 20260506161557 | 51 | 150 | 1.0 | 4.0 | 0.05 | 1.78 | 1.60 | 98 | 1015.3 |
| 20260506161049 | 51 | 109 | 1.0 | 4.0 | 0.05 | 1.78 | 1.60 | 98 | 1015.4 |
| 20260506160549 | 51 | 165 | 1.0 | 6.0 | 0.05 | 1.78 | 1.60 | 98 | 1015.2 |
| 20260506160106 | 51 | 163 | 2.0 | 6.0 | 0.05 | 1.78 | 1.60 | 97 | 1015.1 |
| 20260506155548 | 52 | 117 | 1.0 | 5.0 | 0.05 | 2.09 | 1.60 | 97 | 1015.2 |
| 20260506155050 | 52 | 193 | 1.0 | 5.0 | 0.05 | 2.08 | 1.59 | 97 | 1015.0 |
| 20260506154600 | 52 | 109 | 2.0 | 5.0 | 0.06 | 2.08 | 1.59 | 98 | 1015.2 |
| 20260506154049 | 52 | 127 | 0.0 | 5.0 | 0.06 | 2.08 | 1.58 | 99 | 1015.5 |
| 20260506153548 | 52 | 153 | 2.0 | 5.0 | 0.07 | 2.08 | 1.58 | 98 | 1014.6 |
| 20260506153057 | 52 | 200 | 1.0 | 5.0 | 0.08 | 2.07 | 1.57 | 98 | 1015.3 |
| 20260506152548 | 52 | 119 | 1.0 | 4.0 | 0.08 | 2.07 | 1.57 | 98 | 1015.1 |
| 20260506152048 | 51 | 129 | 1.0 | 3.0 | 0.09 | 2.06 | 1.56 | 98 | 1014.6 |
| 20260506151559 | 51 | 119 | 1.0 | 3.0 | 0.10 | 2.05 | 1.55 | 98 | 1015.3 |
| 20260506151049 | 51 | 162 | 1.0 | 2.0 | 0.12 | 2.05 | 1.55 | 98 | 1015.2 |
| 20260506150552 | 52 | 145 | 0.0 | 2.0 | 0.14 | 2.05 | 1.55 | 98 | 1015.3 |
| 20260506150105 | 52 | 122 | 0.0 | 3.0 | 0.15 | 2.05 | 1.55 | 98 | 1015.4 |
| 20260506145553 | 51 | 129 | 1.0 | 4.0 | 0.15 | 2.28 | 1.55 | 98 | 1015.1 |
| 20260506145048 | 52 | 120 | 0.0 | 4.0 | 0.15 | 2.27 | 1.54 | 98 | 1015.4 |
| 20260506144602 | 51 | 0 | 1.0 | 4.0 | 0.15 | 2.26 | 1.53 | 98 | 1014.9 |
| 20260506144051 | 51 | 105 | 0.0 | 3.0 | 0.14 | 2.25 | 1.52 | 98 | 1015.1 |
| 20260506143551 | 51 | 167 | 1.0 | 4.0 | 0.13 | 2.24 | 1.51 | 98 | 1014.7 |
| 20260506143058 | 52 | 174 | 0.0 | 4.0 | 0.11 | 2.22 | 1.49 | 98 | 1015.0 |
| 20260506142548 | 52 | 169 | 1.0 | 4.0 | 0.11 | 2.22 | 1.49 | 98 | 1015.1 |
| 20260506142053 | 52 | 0 | 0.0 | 2.0 | 0.09 | 2.20 | 1.47 | 98 | 1014.7 |
| 20260506141559 | 52 | 148 | 0.0 | 2.0 | 0.07 | 2.18 | 1.45 | 97 | 1014.2 |
| 20260506141051 | 52 | 146 | 0.0 | 5.0 | 0.05 | 2.16 | 1.43 | 98 | 1015.0 |
| 20260506140553 | 52 | 176 | 1.0 | 5.0 | 0.03 | 2.14 | 1.41 | 97 | 1014.8 |
| 20260506140056 | 52 | 264 | 2.0 | 5.0 | 0.02 | 2.13 | 1.40 | 97 | 1014.2 |
| 20260506135551 | 52 | 103 | 0.0 | 3.0 | 0.02 | 2.24 | 1.40 | 97 | 1014.8 |
| 20260506135051 | 52 | 0 | 1.0 | 3.0 | 0.01 | 2.23 | 1.39 | 97 | 1014.6 |
| 20260506134614 | 52 | 179 | 0.0 | 2.0 | 0.00 | 2.22 | 1.38 | 98 | 1013.9 |
| 20260506134053 | 52 | 131 | 0.0 | 2.0 | 0.00 | 2.22 | 1.38 | 97 | 1014.0 |
| 20260506133551 | 52 | 141 | 1.0 | 2.0 | 0.00 | 2.22 | 1.38 | 97 | 1014.4 |
| 20260506133054 | 52 | 155 | 0.0 | 2.0 | 0.00 | 2.22 | 1.38 | 97 | 1014.0 |
| 20260506132551 | 52 | 0 | 0.0 | 3.0 | 0.00 | 2.22 | 1.38 | 98 | 1014.0 |
| 20260506132051 | 52 | 105 | 0.0 | 3.0 | 0.00 | 2.22 | 1.38 | 98 | 1014.2 |
| 20260506131607 | 52 | 0 | 1.0 | 5.0 | 0.00 | 2.22 | 1.38 | 98 | 1013.8 |
| 20260506131049 | 52 | 132 | 1.0 | 5.0 | 0.00 | 2.22 | 1.38 | 98 | 1013.5 |
| 20260506130552 | 52 | 103 | 1.0 | 5.0 | 0.00 | 2.22 | 1.38 | 98 | 1013.7 |
| 20260506130055 | 52 | 139 | 0.0 | 4.0 | 0.00 | 2.22 | 1.38 | 98 | 1013.8 |
| 20260506125551 | 52 | 153 | 1.0 | 4.0 | 0.00 | 2.22 | 1.38 | 98 | 1013.8 |
| 20260506125051 | 52 | 139 | 2.0 | 4.0 | 0.00 | 2.22 | 1.38 | 98 | 1013.2 |
| 20260506124553 | 52 | 162 | 0.0 | 3.0 | 0.00 | 2.22 | 1.38 | 98 | 1012.6 |
| 20260506124051 | 52 | 179 | 0.0 | 4.0 | 0.00 | 2.22 | 1.38 | 98 | 1013.0 |
| 20260506123552 | 51 | 0 | 1.0 | 4.0 | 0.00 | 2.22 | 1.38 | 98 | 1012.6 |
| 20260506123053 | 51 | 165 | 1.0 | 4.0 | 0.00 | 2.22 | 1.38 | 98 | 1012.6 |
| 20260506122551 | 51 | 155 | 1.0 | 3.0 | 0.00 | 2.22 | 1.38 | 98 | 1012.8 |
| 20260506122051 | 51 | 175 | 0.0 | 3.0 | 0.00 | 2.22 | 1.38 | 98 | 1012.7 |
| 20260506121549 | 51 | 119 | 0.0 | 3.0 | 0.00 | 2.22 | 1.38 | 98 | 1012.6 |
| 20260506121051 | 51 | 153 | 0.0 | 3.0 | 0.00 | 2.22 | 1.38 | 98 | 1012.6 |
| 20260506120549 | 51 | 153 | 1.0 | 3.0 | 0.00 | 2.22 | 1.38 | 98 | 1012.3 |
| 20260506120052 | 51 | 114 | 1.0 | 3.0 | 0.01 | 2.22 | 1.38 | 98 | 1012.2 |
| 20260506115551 | 51 | 139 | 1.0 | 5.0 | 0.02 | 2.22 | 1.38 | 98 | 1012.0 |
| 20260506115048 | 51 | 115 | 1.0 | 5.0 | 0.03 | 2.22 | 1.38 | 98 | 1012.1 |
| 20260506114554 | 51 | 149 | 1.0 | 5.0 | 0.05 | 2.22 | 1.38 | 98 | 1012.2 |
| 20260506114052 | 51 | 0 | 0.0 | 5.0 | 0.08 | 2.22 | 1.38 | 98 | 1012.3 |
| 20260506113551 | 51 | 96 | 1.0 | 5.0 | 0.08 | 2.22 | 1.38 | 98 | 1012.2 |
| 20260506113051 | 51 | 121 | 1.0 | 3.0 | 0.09 | 2.22 | 1.38 | 98 | 1011.9 |
| 20260506112551 | 51 | 162 | 1.0 | 4.0 | 0.12 | 2.22 | 1.38 | 98 | 1011.8 |
| 20260506112051 | 51 | 140 | 1.0 | 4.0 | 0.14 | 2.22 | 1.38 | 98 | 1011.5 |
| 20260506111608 | 51 | 173 | 1.0 | 5.0 | 0.17 | 2.22 | 1.38 | 98 | 1011.6 |
| 20260506111051 | 51 | 139 | 1.0 | 5.0 | 0.18 | 2.22 | 1.38 | 98 | 1011.8 |
| 20260506110553 | 51 | 77 | 1.0 | 5.0 | 0.21 | 2.22 | 1.38 | 98 | 1011.7 |
| 20260506110055 | 51 | 91 | 2.0 | 5.0 | 0.22 | 2.21 | 1.37 | 98 | 1011.7 |
| 20260506105548 | 51 | 139 | 1.0 | 5.0 | 0.23 | 2.20 | 1.36 | 98 | 1011.8 |
| 20260506105051 | 51 | 103 | 1.0 | 5.0 | 0.24 | 2.19 | 1.35 | 98 | 1010.7 |
| 20260506104554 | 51 | 172 | 1.0 | 5.0 | 0.23 | 2.17 | 1.33 | 98 | 1012.2 |
| 20260506104055 | 51 | 125 | 1.0 | 4.0 | 0.22 | 2.14 | 1.30 | 98 | 1012.7 |
| 20260506103551 | 52 | 181 | 1.0 | 4.0 | 0.23 | 2.14 | 1.30 | 98 | 1012.1 |
| 20260506103051 | 52 | 82 | 0.0 | 6.0 | 0.22 | 2.11 | 1.28 | 98 | 1011.6 |
| 20260506102552 | 52 | 110 | 1.0 | 6.0 | 0.21 | 2.09 | 1.26 | 98 | 1012.0 |
| 20260506102056 | 52 | 99 | 2.0 | 6.0 | 0.19 | 2.08 | 1.24 | 98 | 1012.0 |
| 20260506101554 | 52 | 0 | 1.0 | 5.0 | 0.17 | 2.05 | 1.21 | 98 | 1011.7 |
| 20260506101051 | 52 | 193 | 1.0 | 5.0 | 0.15 | 2.03 | 1.19 | 98 | 1012.5 |
| 20260506100551 | 52 | 134 | 0.0 | 6.0 | 0.13 | 2.01 | 1.16 | 98 | 1012.0 |
| 20260506100053 | 52 | 92 | 1.0 | 6.0 | 0.11 | 1.99 | 1.15 | 98 | 1011.5 |
| 20260506095551 | 52 | 79 | 2.0 | 6.0 | 0.10 | 1.97 | 1.13 | 98 | 1011.2 |
| 20260506095050 | 52 | 167 | 1.0 | 6.0 | 0.08 | 1.95 | 1.11 | 98 | 1011.0 |
| 20260506094552 | 52 | 146 | 0.0 | 6.0 | 0.07 | 1.94 | 1.10 | 98 | 1011.6 |
| 20260506094049 | 52 | 134 | 2.0 | 6.0 | 0.05 | 1.92 | 1.08 | 98 | 1011.3 |
| 20260506093554 | 52 | 196 | 1.0 | 4.0 | 0.04 | 1.91 | 1.07 | 98 | 1010.9 |
| 20260506093057 | 52 | 139 | 1.0 | 5.0 | 0.05 | 1.90 | 1.05 | 98 | 1010.8 |
| 20260506092550 | 53 | 129 | 0.0 | 7.0 | 0.19 | 1.89 | 1.04 | 98 | 1011.2 |
| 20260506092055 | 52 | 54 | 3.0 | 7.0 | 0.22 | 1.89 | 1.04 | 98 | 1009.7 |
| 20260506091552 | 53 | 98 | 2.0 | 7.0 | 0.30 | 1.88 | 1.04 | 98 | 1010.2 |
| 20260506091051 | 53 | 185 | 1.0 | 4.0 | 0.41 | 1.88 | 1.04 | 98 | 1010.4 |
| 20260506090552 | 53 | 114 | 0.0 | 4.0 | 0.50 | 1.88 | 1.04 | 98 | 1010.7 |
| 20260506090054 | 53 | 106 | 1.0 | 4.0 | 0.52 | 1.88 | 1.04 | 98 | 1010.2 |
| 20260506085551 | 53 | 190 | 1.0 | 4.0 | 0.57 | 1.87 | 1.03 | 98 | 1010.0 |
| 20260506085051 | 53 | 178 | 1.0 | 6.0 | 0.61 | 1.87 | 1.03 | 98 | 1010.3 |
| 20260506084553 | 53 | 134 | 0.0 | 7.0 | 0.62 | 1.87 | 1.03 | 98 | 1009.6 |
| 20260506084053 | 53 | 161 | 1.0 | 7.0 | 0.64 | 1.87 | 1.03 | 98 | 1009.4 |
| 20260506083551 | 53 | 197 | 2.0 | 6.0 | 0.64 | 1.87 | 1.03 | 98 | 1009.2 |
| 20260506083109 | 53 | 187 | 1.0 | 4.0 | 0.62 | 1.84 | 1.00 | 97 | 1009.1 |
| 20260506082548 | 53 | 128 | 2.0 | 7.0 | 0.49 | 1.70 | 0.86 | 97 | 1009.8 |
| 20260506082054 | 53 | 95 | 1.0 | 8.0 | 0.46 | 1.67 | 0.83 | 97 | 1009.7 |
| 20260506081552 | 53 | 142 | 3.0 | 8.0 | 0.36 | 1.57 | 0.73 | 97 | 1011.0 |
| 20260506081052 | 53 | 167 | 3.0 | 7.0 | 0.24 | 1.45 | 0.61 | 97 | 1010.4 |
| 20260506080552 | 54 | 172 | 2.0 | 8.0 | 0.17 | 1.38 | 0.54 | 97 | 1010.0 |
| 20260506073054 | 55 | 201 | 2.0 | 9.0 | 0.27 | 1.22 | 0.38 | 96 | 1009.8 |
| 20260506072551 | 55 | 101 | 2.0 | 4.0 | 0.29 | 1.21 | 0.37 | 96 | 1009.4 |
| 20260506072049 | 55 | 129 | 1.0 | 4.0 | 0.29 | 1.21 | 0.37 | 96 | 1009.2 |
| 20260506071555 | 55 | 174 | 0.0 | 7.0 | 0.31 | 1.21 | 0.37 | 95 | 1009.1 |
| 20260506071052 | 55 | 129 | 1.0 | 7.0 | 0.37 | 1.21 | 0.37 | 95 | 1009.3 |
| 20260506070552 | 56 | 180 | 3.0 | 9.0 | 0.37 | 1.21 | 0.37 | 94 | 1009.4 |
| 20260506070126 | 57 | 134 | 2.0 | 11.0 | 0.34 | 1.17 | 0.34 | 93 | 1009.3 |
| 20260506062051 | 67 | 79 | 2.0 | 27.0 | 0.08 | 0.92 | 0.08 | 91 | 1008.4 |
| 20260506061553 | 68 | 128 | 9.0 | 27.0 | 0.06 | 0.90 | 0.06 | 88 | 1008.0 |
| 20260506061051 | 70 | 75 | 5.0 | 12.0 | 0.00 | 0.84 | 0.00 | 90 | 1006.9 |